www.pogodaiklimat.ru

Погода и климат >> Архив погоды >> Россия >> Хабаровский край >> Урми


ПОГОДА в Урми

  • Прогноз погоды в Урми
  • Монитор погоды в Урми

АРХИВ ПОГОДЫ в Урми

Время (UTC), дата Ветер
(напр.,м/с)
 
Видим.   Явления Облачность Т
(С)
Тd
(С)
f
(%)
Тe
(С)
Тes
(С)
Комфортность P
(гПа)
Po
(гПа)
Тmin
(С)
Tmax
(С)
R
(мм)
R24
(мм)
S
(см)
06 19.04 З 4
{11}
50 км 10/9 600 м
[Cb cap Ci fib]
+3.5 -6.5 48 -0 0 1008.8 984.5
09 19.04 З 3
{11}
50 км 9/9 600 м
[Cb cap]
+3.2 -7.1 47 0 0 1010.6 986.3 +4.1
12 19.04 З 1 50 км ясно -1.0 -7.8 60 -3 -3 1012.3 987.5
15 19.04 З 1 50 км ясно -4.7 -7.2 83 -7 -7 1012.9 987.8
18 19.04 З 1 50 км ясно -6.7 -8.0 90 -9 -9 1013.1 987.8
21 19.04 штиль 0 50 км ясно -7.9 -8.8 93 -9 -8 1012.9 987.5 -8.5
00 20.04 СЗ 1 50 км ясно +3.8 -7.2 44 +3 +13 опасность
простуды
1011.5 987.2
03 20.04 ЮВ 2 50 км 9/9 600 м
[Cu Sc]
+9.1 -7.9 29 +8 +10 1008.2 984.4
06 20.04 Ю 2 50 км 10/0
[Ac trans Cs]
+9.3 -8.5 28 +8 +14 1006.4 982.6
09 20.04 ЮВ 1 50 км 10/10 600 м
[Sc]
+7.2 -6.3 38 +7 +7 1005.3 981.4 +10.0
12 20.04 В 1 50 км 10/10 600 м
[Sc]
+4.6 -4.9 50 +4 +4 1006.4 982.3
15 20.04 штиль 0 50 км 10/6 600 м
[Sc As op]
+2.1 -4.3 63 +1 +1 1005.9 981.6
18 20.04 штиль 0 50 км ясно -3.3 -5.7 83 -4 -4 1005.6 980.8
21 20.04 штиль 0 50 км ясно -4.8 -6.2 90 -6 -5 1006.9 981.9 -5.1
00 21.04 СЗ 4 50 км ясно +7.1 -10.3 28 +5 +10 1006.1 982.1
03 21.04 З 5-13
{13}
50 км 1/1 600 м
[Cu hum]
+9.5 -15.3 16 +7 +14 1006.3 982.6
06 21.04 З 3
{13}
50 км 3/3 600 м
[Cu hum]
+9.9 -14.4 16 +9 +14 1006.8 983.1
09 21.04 СЗ 4
{11}
50 км 3/3 600 м
[Cu hum]
+7.6 -14.8 19 +5 +6 1008.7 984.7 +10.3
12 21.04 штиль 0 50 км ясно -1.4 -12.8 42 -2 -2 1011.9 987.1
15 21.04 З 2 50 км ясно -3.4 -10.5 58 -7 -7 1013.0 988.0
18 21.04 З 1 50 км ясно -6.9 -9.8 80 -9 -9 1014.4 989.0
21 21.04 З 1 50 км ясно -7.2 -9.2 86 -10 -9 1015.7 990.3 -8.8
00 22.04 З 1 50 км ясно +8.1 -11.7 23 +8 +18 опасность
простуды
1014.6 990.5
03 22.04 СЗ 4
{10}
50 км ясно +11.9 -14.9 14 +11 +20 1013.3 989.6
06 22.04 З 2
{11}
50 км 10/0
[Ac trans Ci sp]
+13.1 -15.6 12 +13 +19 1011.4 987.8
09 22.04 С 1
{14}
50 км 3/0
[Ci fib]
+13.3 -15.6 12 +14 +15 1010.0 986.5 +14.7
12 22.04 штиль 0 50 км ясно +0.2 -11.9 40 0 0 1012.3 987.6
15 22.04 штиль 0 50 км ясно -3.5 -9.9 61 -4 -4 1011.8 986.8
18 22.04 З 1 50 км 10/10 600 м
[Sc]
-1.6 -7.4 65 -3 -3 1009.9 985.1
21 22.04 Ю 1 50 км 10/10 600 м
[Sc]
+0.2 -6.1 63 -1 -1 1008.3 983.7 -3.7
00 23.04 В 1 10 км слаб. дождь 10/10 200 м
[Frnb Ns]
+2.7 +1.4 91 +1 +1 1007.1 982.8
03 23.04 штиль 0 10 км слаб. дождь 10/10 100 м
[Frnb Ns]
+2.8 +2.1 95 +2 +2 1005.2 981.0
06 23.04 штиль 0 20 км {дождь} 10/10 200 м
[St]
+3.7 +2.7 93 +3 +3 1004.5 980.3
09 23.04 штиль 0 20 км 10/10 600 м
[Sc]
+3.9 +3.0 94 +3 +3 1004.5 980.4 +3.9 2
12 23.04 штиль 0 50 км {дождь} 10/10 600 м
[Sc]
+2.3 +1.8 96 +1 +1 1005.7 981.4
15 23.04 штиль 0 500 м туман ?/? +1.0 +0.6 97 -0 -0 1005.6 981.2
18 23.04 штиль 0 500 м туман ?/? +0.6 +0.3 98 -1 -1 1006.3 981.8
21 23.04 штиль 0 500 м туман ?/? +0.1 -0.2 98 -1 -1 1005.6 981.1 -0.2 0.6
00 24.04 З 1 50 км в посл. час туман 10/10 200 м
[St]
+3.4 +2.9 97 +2 +2 1005.6 981.4
03 24.04 З 3 50 км 9/9 600 м
[Cb cap]
+7.6 -2.3 49 +5 +7 1005.6 981.8
06 24.04 СЗ 3
{11}
50 км 9/9 600 м
[Cb cap]
+8.4 -5.4 37 +7 +7 1005.7 981.9
09 24.04 СЗ 1 50 км {ливн. осадки} 8/8 600 м
[Cb cap]
+7.4 -3.1 47 +7 +7 1006.7 982.8 +9.5 0.0
12 24.04 штиль 0 50 км {ливн. осадки} ясно +2.3 -5.2 58 +2 +2 1008.7 984.4
15 24.04 З 2 50 км ясно -1.6 -5.0 78 -5 -5 1009.9 985.2
18 24.04 штиль 0 50 км ясно -2.1 -3.9 87 -3 -3 1010.6 985.8
21 24.04 З 1 50 км ясно -3.9 -4.6 95 -6 -6 1013.1 988.1 -4.4
00 25.04 С 1 50 км ясно +7.4 -2.9 48 +7 +17 опасность
простуды
1014.3 990.3
03 25.04 В 1 50 км 8/8 600 м
[Cb cap]
+11.2 -5.6 30 +12 +15 1014.0 990.2
06 25.04 В 1 50 км 10/9 600 м
[Cb cap Ci sp]
+11.2 -5.6 30 +12 +13 1013.8 990.1
09 25.04 штиль 0 50 км 9/9 600 м
[Cb cap]
+10.0 -4.7 35 +10 +10 1014.8 990.9 +11.7
12 25.04 штиль 0 50 км ясно +3.1 -4.1 59 +3 +3 1017.6 993.1
15 25.04 штиль 0 50 км 9/9 600 м
[Sc]
+2.3 -3.6 65 +2 +2 1019.0 994.4
18 25.04 штиль 0 50 км 3/3 600 м
[Sc]
-1.8 -4.4 82 -3 -3 1019.8 994.8
21 25.04 штиль 0 50 км ясно -2.9 -4.6 88 -4 -3 1020.6 995.5 -3.3
00 26.04 В 1 50 км ясно +8.2 -3.5 43 +8 +18 опасность
простуды
1019.1 995.0
03 26.04 СЗ 1 50 км 8/8 600 м
[Cu hum]
+12.7 -6.1 26 +13 +17 1016.3 992.6

 

Местоположение метеостанции Урми (Хабаровский край, Россия): широта 49.40 долгота 133.20 высота над уровнем моря 201 м.

В архиве по умолчанию представлена погода в Урми за последнюю неделю. Архивные данные за месяц целиком и за предыдущие месяцы, начиная с января 2011 года, Вы можете получить, выбрав интересующий диапазон дат из раскрывающегося списка и нажав кнопку "Ввод!".


*Определитесь, кто Вы:
робот инопланетянин человек

Внимание! Время в таблицах - всемирное. Для получения местного времени необходимо прибавить поправку, которая равна 10 ч.

Смотрите также архив погоды в соседних городах и на ближайших метеорологических станциях:

Погода в Верховье Урми (Хабаровский край, Россия) (75 км)
Погода в Биробиджане (Еврейская автономная область, Россия) (78 км)
Погода в Смидовиче (Еврейская автономная область, Россия) (99 км)
Погода в Сутуре (Хабаровский край, Россия) (109 км)
Погода в Куре (Хабаровский край, Россия) (117 км)
Погода в Хабаровск Центре (Еврейская автономная область, Россия) (121 км)
Погода в Литовко (Хабаровский край, Россия) (139 км)
Погода на Хабаровск Мосту (Хабаровский край, Россия) (164 км)
Погода в Облучье (Еврейская автономная область, Россия) (166 км)
Погода в Хабаровске АМС (Хабаровский край, Россия) (167 км)

Пояснения к столбцам:

Ветер - указаны скорость ветра в м/с - средняя за 10 мин, порывы в срок и между сроками (в фигурных скобках) и направление, откуда дует ветер: С - северный, СВ - северо-восточный, В - восточный, ЮВ - юго-восточный, Ю - южный, ЮЗ - юго-западный, З - западный, СЗ - северо-западный.
Видимость - горизонтальная дальность видимости в метрах или километрах. При видимости от 1 до 10 км при отсутствии осадков обычно наблюдается дымка, при ухудшении видимости до 1 км и менее - туман. В сухую погоду видимость может ухудшаться дымом, пылью или мглою.
Явления - указаны атмосферные явления, наблюдавшиеся в срок или в последний час перед сроком; фигурными скобками обозначены явления, наблюдавшиеся между сроками (за 1-3 часа до срока); квадратными скобками обозначены град или гололедные отложения с указанием их диаметра в мм.
Облачность - указаны через наклонную черту общая и нижняя облачность в баллах и высота нижней границы облаков в метрах; квадратными скобками обозначены формы облаков: Ci - перистые, Cs - перисто-слоистые, Cc - перисто-кучевые, Ac - высококучевые, As - высокослоистые, Sc - слоисто-кучевые, Ns - слоисто-дождевые, Cu - кучевые, Cb - кучево-дождевые. Подробнее классификацию облаков см. в Атласе облаков (PDF).
T - Температура воздуха - температура, измеренная на высоте 2 м над землей.
Td - Температура точки росы - температура, при понижении до которой содержащийся в воздухе водяной пар достигнет насыщения.
f - Относительная влажность воздуха - влажноcть воздуха, измеренная на высоте 2 м над землей.
Te - Эффективная температура - температура, которую ощущает одетый по сезону человек в тени. Характеристика душности погоды. При расчете учитывается влияние влажности воздуха и скорости ветра на теплоощущения человека.
Tes - Эффективная температура на солнце - температура, которую ощущает человек, с поправкой на солнечный нагрев. Характеристика знойности погоды. Зависит от высоты солнца над горизонтом, облачности и скорости ветра. Ночью, в пасмурную погоду, а также при ветре 12 м/с и более поправка равна нулю.
P - Атмосферное давление - приведенное к уровню моря атмосферное давление.
Po - Атмосферное давление - измеренное на уровне метеостанции атмосферное давление.
Tmin - Минимальная температура - минимум температуры воздуха на высоте 2 м над землей.
Tmax - Максимальная температура - максимум температуры воздуха на высоте 2 м над землей.
R - Количество осадков - Количество выпавших осадков за период времени, мм. При наведении курсора мыши на число - период времени, за который выпало указанное количество осадков.
R24 - Количество осадков - Количество выпавших осадков за 24 часа, мм.
S - Снежный покров - Высота снежного покрова, см. При наведении курсора мыши на число - состояние снежного покрова и степень покрытия местности в баллах.